Regional Weather Roundup
Issued by NWS Green Bay, WI

Home | Current Version | Previous Version | Text Only | Print | Product List | Glossary On
Versions: 1 2 3 4 5 6 7 8 9 10 11 12 13 14 15 16 17 18 19 20 21 22 23 24 25 26 27 28 29 30 31 32 33 34 35 36 37 38 39 40 41 42 43 44 45 46 47 48 49 50
000
ASUS43 KGRB 011800
RWRGRB

NORTH-CENTRAL AND NORTHEAST WISCONSIN REGIONAL WEATHER ROUNDUP
NATIONAL WEATHER SERVICE GREEN BAY WI
100 PM CDT WED JUL 01 2015

WIZ005-009-010>012-018-019-011900-
NORTH CENTRAL WISCONSIN

CITY           SKY/WX    TMP DP  RH WIND       PRES   REMARKS
IRONWOOD         N/A     64  43  45 CALM      30.01R
MANITOWISH WTR NOT AVBL
ARBOR VITAE    NOT AVBL
EAGLE RIVER    NOT AVBL
LAND O LAKES   NOT AVBL
RHINELANDER    SUNNY     65  43  44 VRB5      30.03S
PHILLIPS       NOT AVBL
ANTIGO         NOT AVBL
TOMAHAWK       NOT AVBL
MERRILL        NOT AVBL
$$

WIZ013-073-011900-
NORTHEAST WISCONSIN

CITY           SKY/WX    TMP DP  RH WIND       PRES   REMARKS
IRON MOUNTAIN  SUNNY     66  43  43 N8        29.99S
MARINETTE      PTSUNNY   64  48  55 SE10      29.98S
$$

WIZ017-030-035>037-045-011900-
CENTRAL WISCONSIN

CITY           SKY/WX    TMP DP  RH WIND       PRES   REMARKS
MEDFORD        NOT AVBL
WAUSAU         SUNNY     68  43  40 N7        29.99F
MOSINEE        NOT AVBL
MARSHFIELD       N/A     66  44  45 N5        30.02S
WISC RAPIDS      N/A     68  42  38 NE6       30.02S
STEVENS POINT  NOT AVBL
WAUPACA        NOT AVBL
SHAWANO        NOT AVBL
CLINTONVILLE   NOT AVBL
$$

WIZ038-039-048-051-011900-
FOX VALLEY

CITY           SKY/WX    TMP DP  RH WIND       PRES   REMARKS
NWS GREEN BAY  PTSUNNY   63  51  65 NE8       30.00F
APPLETON       MOSUNNY   63  48  59 N9        30.00S
OSHKOSH        PTSUNNY   64  51  62 CALM      29.99S
FOND DU LAC    PTSUNNY   66  53  63 NE8       30.00R
$$

WIZ022-050-052-011900-
EAST CENTRAL WISCONSIN

CITY           SKY/WX    TMP DP  RH WIND       PRES   REMARKS
STURGEON BAY   CLOUDY    57  48  72 NW6       30.03R
MANITOWOC      NOT AVBL
SHEBOYGAN      CLOUDY    60  52  74 VRB7      30.00R
$$

LMZ563-521-522-541>543-011900-
LAKESHORE

STATION/POSITION TIME  TEMP    WIND        PRES    VSBY  WAVE
                       AIR SEA DIR/SP/G                  HT/PER
                 (UTC) (F)     (DEG/KT/KT) (MB)    (MI)  (FT/S)
SHEBOYGAN LKSHOR 1700   53      70/ 12/ 13 1016.3R
KEWAUNEE LKSHORE 1700   56     350/  5/  8 1015.2R
NORTHPORT PIER   1700   56     340/ 10/ 15 1015.2S
N MID LAKE BUOY  1650   46 41  320/  6/  8 1015.2R         2/ 4
S GREEN BAY BUOY 1730   56 68  300/  6/  8 1017.6R
SISTER BAY LKSHO 1714   60      10/ 12/ 16   N/A
CHAMBERS ISLAND  1700   60      10/  4/  6 1015.6S
MENOMINEE LKSHOR 1700   62      CALM  /  2 1016.0F
$$


USA.gov is the U.S. government's official web portal to all federal, state and local government web resources and services.